| time (UTC) | temp F | wind direction | speed MPH | gust MPH | rain 1hr in | rain 24hr in | rain mn in | humidity % | barometer mb |
| 20260905081330 | 78 | 152 | 1.0 | 2.0 | 0.00 | 0.00 | 0.00 | 76 | 1013.0 |
| 20260905080829 | 78 | 128 | 0.0 | 0.0 | 0.00 | 0.00 | 0.00 | 76 | 1013.0 |
| 20260905080323 | 78 | 128 | 0.0 | 0.0 | 0.00 | 0.00 | 0.00 | 76 | 1013.0 |
| 20260905075817 | 78 | 128 | 0.0 | 0.0 | 0.00 | 0.00 | 0.00 | 75 | 1013.4 |
| 20260905075317 | 79 | 127 | 0.0 | 0.0 | 0.00 | 0.00 | 0.00 | 75 | 1013.2 |
| 20260905074816 | 79 | 127 | 0.0 | 0.0 | 0.00 | 0.00 | 0.00 | 74 | 1013.4 |
| 20260905074312 | 79 | 128 | 0.0 | 0.0 | 0.00 | 0.00 | 0.00 | 73 | 1013.2 |
| 20260905073806 | 80 | 129 | 1.0 | 1.0 | 0.00 | 0.00 | 0.00 | 73 | 1013.4 |
| 20260905073301 | 80 | 127 | 0.0 | 0.0 | 0.00 | 0.00 | 0.00 | 72 | 1013.4 |
| 20260905072755 | 80 | 128 | 0.0 | 0.0 | 0.00 | 0.00 | 0.00 | 71 | 1013.4 |
| 20260905072251 | 81 | 130 | 0.0 | 1.0 | 0.00 | 0.00 | 0.00 | 70 | 1013.5 |
| 20260905071747 | 81 | 133 | 0.0 | 1.0 | 0.00 | 0.00 | 0.00 | 69 | 1013.2 |
| 20260905071243 | 81 | 132 | 3.0 | 3.0 | 0.00 | 0.00 | 0.00 | 69 | 1013.4 |
| 20260905070738 | 82 | 135 | 0.0 | 1.0 | 0.00 | 0.00 | 0.00 | 69 | 1013.7 |
| 20260905070234 | 82 | 127 | 0.0 | 0.0 | 0.00 | 0.00 | 0.00 | 68 | 1013.7 |
| 20260905065733 | 82 | 131 | 0.0 | 1.0 | 0.00 | 0.00 | 0.00 | 67 | 1013.7 |
| 20260905065227 | 82 | 136 | 1.0 | 1.0 | 0.00 | 0.00 | 0.00 | 67 | 1013.5 |
| 20260905064723 | 82 | 150 | 0.0 | 1.0 | 0.00 | 0.00 | 0.00 | 67 | 1013.5 |
| 20260905064218 | 82 | 183 | 1.0 | 2.0 | 0.00 | 0.00 | 0.00 | 67 | 1013.6 |
| 20260905063717 | 82 | 155 | 2.0 | 2.0 | 0.00 | 0.00 | 0.00 | 66 | 1013.5 |
| 20260905063213 | 83 | 161 | 1.0 | 1.0 | 0.00 | 0.00 | 0.00 | 65 | 1013.5 |
| 20260905062709 | 83 | 137 | 1.0 | 2.0 | 0.00 | 0.00 | 0.00 | 65 | 1013.6 |
| 20260905062208 | 83 | 141 | 1.0 | 1.0 | 0.00 | 0.00 | 0.00 | 64 | 1013.6 |
| 20260905061702 | 84 | 137 | 1.0 | 2.0 | 0.00 | 0.00 | 0.00 | 64 | 1013.7 |
| 20260905061201 | 84 | 137 | 0.0 | 1.0 | 0.00 | 0.00 | 0.00 | 63 | 1013.7 |
| 20260905060657 | 84 | 149 | 1.0 | 2.0 | 0.00 | 0.00 | 0.00 | 63 | 1013.4 |
| 20260905060154 | 84 | 153 | 1.0 | 1.0 | 0.00 | 0.00 | 0.00 | 62 | 1013.6 |
| 20260905055652 | 84 | 138 | 0.0 | 1.0 | 0.00 | 0.00 | 0.00 | 62 | 1013.6 |
| 20260905055147 | 84 | 144 | 0.0 | 1.0 | 0.00 | 0.00 | 0.00 | 62 | 1013.4 |
| 20260905054643 | 84 | 136 | 1.0 | 1.0 | 0.00 | 0.00 | 0.00 | 62 | 1013.0 |
| 20260905054138 | 84 | 177 | 3.0 | 5.0 | 0.00 | 0.00 | 0.00 | 62 | 1013.3 |
| 20260905053638 | 84 | 162 | 1.0 | 2.0 | 0.00 | 0.00 | 0.00 | 62 | 1013.5 |
| 20260905053133 | 85 | 149 | 2.0 | 2.0 | 0.00 | 0.00 | 0.00 | 61 | 1013.3 |
| 20260905052632 | 85 | 152 | 1.0 | 1.0 | 0.00 | 0.00 | 0.00 | 61 | 1013.4 |
| 20260905052127 | 85 | 142 | 1.0 | 1.0 | 0.00 | 0.00 | 0.00 | 60 | 1013.2 |
| 20260905051623 | 86 | 156 | 2.0 | 3.0 | 0.00 | 0.00 | 0.00 | 59 | 1013.4 |
| 20260905051120 | 86 | 156 | 3.0 | 5.0 | 0.00 | 0.00 | 0.00 | 59 | 1013.2 |
| 20260905050616 | 86 | 176 | 2.0 | 3.0 | 0.00 | 0.00 | 0.00 | 58 | 1013.4 |
| 20260905050112 | 86 | 144 | 3.0 | 6.0 | 0.00 | 0.00 | 0.00 | 58 | 1013.4 |
| 20260905045607 | 87 | 160 | 4.0 | 9.0 | 0.00 | 0.00 | 0.00 | 57 | 1013.2 |
| 20260905045102 | 87 | 171 | 2.0 | 2.0 | 0.00 | 0.00 | 0.00 | 57 | 1013.2 |
| 20260905044601 | 87 | 161 | 1.0 | 2.0 | 0.00 | 0.00 | 0.00 | 57 | 1013.2 |
| 20260905044056 | 87 | 145 | 1.0 | 3.0 | 0.00 | 0.00 | 0.00 | 57 | 1013.2 |
| 20260905043555 | 87 | 161 | 1.0 | 2.0 | 0.00 | 0.00 | 0.00 | 57 | 1013.2 |
| 20260905043051 | 87 | 153 | 2.0 | 3.0 | 0.00 | 0.00 | 0.00 | 56 | 1013.3 |
| 20260905042549 | 87 | 159 | 1.0 | 2.0 | 0.00 | 0.00 | 0.00 | 56 | 1013.2 |
| 20260905042045 | 87 | 165 | 2.0 | 5.0 | 0.00 | 0.00 | 0.00 | 56 | 1013.3 |
| 20260905041540 | 87 | 148 | 1.0 | 1.0 | 0.00 | 0.00 | 0.00 | 56 | 1012.9 |
| 20260905041035 | 88 | 157 | 1.0 | 2.0 | 0.00 | 0.00 | 0.00 | 56 | 1013.0 |
| 20260905040535 | 88 | 169 | 3.0 | 5.0 | 0.00 | 0.00 | 0.00 | 55 | 1013.2 |
| 20260905040033 | 88 | 134 | 1.0 | 5.0 | 0.00 | 0.00 | 0.00 | 56 | 1013.0 |
| 20260905035529 | 87 | 143 | 3.0 | 6.0 | 0.00 | 0.00 | 0.00 | 56 | 1013.2 |
| 20260905035026 | 87 | 176 | 3.0 | 6.0 | 0.00 | 0.00 | 0.00 | 56 | 1012.9 |
| 20260905034521 | 88 | 145 | 3.0 | 3.0 | 0.00 | 0.00 | 0.00 | 55 | 1012.8 |
| 20260905034020 | 88 | 157 | 3.0 | 5.0 | 0.00 | 0.00 | 0.00 | 55 | 1012.8 |
| 20260905033514 | 88 | 166 | 4.0 | 5.0 | 0.00 | 0.00 | 0.00 | 54 | 1012.9 |
| 20260905033011 | 88 | 119 | 4.0 | 5.0 | 0.00 | 0.00 | 0.00 | 54 | 1012.5 |
| 20260905032505 | 88 | 161 | 2.0 | 2.0 | 0.00 | 0.00 | 0.00 | 54 | 1012.5 |
| 20260905032000 | 88 | 159 | 3.0 | 5.0 | 0.00 | 0.00 | 0.00 | 55 | 1012.7 |
| 20260905031456 | 88 | 151 | 3.0 | 3.0 | 0.00 | 0.00 | 0.00 | 55 | 1012.7 |
| 20260905030951 | 88 | 140 | 3.0 | 3.0 | 0.00 | 0.00 | 0.00 | 55 | 1012.7 |
| 20260905030446 | 88 | 158 | 4.0 | 5.0 | 0.00 | 0.00 | 0.00 | 55 | 1012.7 |
| 20260905025945 | 89 | 150 | 2.0 | 2.0 | 0.00 | 0.00 | 0.00 | 55 | 1012.6 |
| 20260905025440 | 89 | 144 | 4.0 | 5.0 | 0.00 | 0.00 | 0.00 | 55 | 1012.3 |
| 20260905024938 | 89 | 145 | 5.0 | 7.0 | 0.00 | 0.00 | 0.00 | 55 | 1012.4 |
| 20260905024437 | 89 | 155 | 3.0 | 3.0 | 0.00 | 0.00 | 0.00 | 55 | 1012.4 |
| 20260905023932 | 89 | 134 | 0.0 | 0.0 | 0.00 | 0.00 | 0.00 | 55 | 1012.4 |
| 20260905023428 | 89 | 150 | 2.0 | 2.0 | 0.00 | 0.00 | 0.00 | 54 | 1012.2 |
| 20260905022927 | 88 | 150 | 1.0 | 2.0 | 0.00 | 0.00 | 0.00 | 55 | 1012.0 |
| 20260905022422 | 88 | 148 | 2.0 | 2.0 | 0.00 | 0.00 | 0.00 | 55 | 1012.2 |
| 20260905021917 | 88 | 139 | 1.0 | 1.0 | 0.00 | 0.00 | 0.00 | 55 | 1011.8 |
| 20260905021412 | 89 | 146 | 1.0 | 1.0 | 0.00 | 0.00 | 0.00 | 55 | 1012.1 |
| 20260905020907 | 89 | 143 | 1.0 | 1.0 | 0.00 | 0.00 | 0.00 | 55 | 1011.8 |
| 20260905020406 | 89 | 148 | 2.0 | 2.0 | 0.00 | 0.00 | 0.00 | 54 | 1011.8 |
| 20260905015906 | 90 | 143 | 2.0 | 2.0 | 0.00 | 0.00 | 0.00 | 53 | 1011.7 |
| 20260905015404 | 91 | 148 | 2.0 | 3.0 | 0.00 | 0.00 | 0.00 | 52 | 1011.7 |
| 20260905014859 | 91 | 139 | 0.0 | 1.0 | 0.00 | 0.00 | 0.00 | 52 | 1011.6 |
| 20260905014354 | 91 | 132 | 0.0 | 0.0 | 0.00 | 0.00 | 0.00 | 52 | 1011.7 |
| 20260905013849 | 91 | 131 | 0.0 | 0.0 | 0.00 | 0.00 | 0.00 | 52 | 1011.5 |
| 20260905013346 | 91 | 130 | 0.0 | 0.0 | 0.00 | 0.00 | 0.00 | 51 | 1011.6 |
| 20260905012846 | 91 | 141 | 1.0 | 1.0 | 0.00 | 0.00 | 0.00 | 51 | 1011.6 |
| 20260905012341 | 91 | 132 | 0.0 | 0.0 | 0.00 | 0.00 | 0.00 | 51 | 1011.3 |
| 20260905011838 | 92 | 134 | 0.0 | 0.0 | 0.00 | 0.00 | 0.00 | 51 | 1011.5 |
| 20260905011333 | 92 | 128 | 0.0 | 0.0 | 0.00 | 0.00 | 0.00 | 50 | 1011.5 |
| 20260905010829 | 92 | 151 | 1.0 | 1.0 | 0.00 | 0.00 | 0.00 | 50 | 1011.3 |
| 20260905010323 | 92 | 135 | 0.0 | 1.0 | 0.00 | 0.00 | 0.00 | 49 | 1011.2 |
| 20260905005820 | 93 | 138 | 1.0 | 2.0 | 0.00 | 0.00 | 0.00 | 49 | 1011.2 |
| 20260905005315 | 93 | 152 | 2.0 | 5.0 | 0.00 | 0.00 | 0.00 | 49 | 1011.3 |
| 20260905004810 | 93 | 144 | 1.0 | 2.0 | 0.00 | 0.00 | 0.00 | 48 | 1011.3 |
| 20260905004305 | 94 | 134 | 1.0 | 2.0 | 0.00 | 0.00 | 0.00 | 48 | 1011.3 |
| 20260905003759 | 94 | 137 | 1.0 | 1.0 | 0.00 | 0.00 | 0.00 | 47 | 1011.3 |
| 20260905003256 | 94 | 137 | 1.0 | 1.0 | 0.00 | 0.00 | 0.00 | 47 | 1011.2 |
| 20260905002751 | 95 | 154 | 0.0 | 2.0 | 0.00 | 0.00 | 0.00 | 46 | 1011.7 |
| 20260905002251 | 95 | 153 | 3.0 | 5.0 | 0.00 | 0.00 | 0.00 | 45 | 1011.2 |
| 20260905001746 | 96 | 189 | 1.0 | 1.0 | 0.00 | 0.00 | 0.00 | 45 | 1011.1 |
| 20260905001245 | 96 | 167 | 3.0 | 5.0 | 0.00 | 0.00 | 0.00 | 44 | 1011.1 |
| 20260905000741 | 96 | 156 | 1.0 | 1.0 | 0.00 | 0.00 | 0.00 | 44 | 1010.8 |
| 20260905000236 | 97 | 146 | 2.0 | 2.0 | 0.00 | 0.00 | 0.00 | 43 | 1010.8 |
| 20260904235732 | 97 | 191 | 6.0 | 8.0 | 0.00 | 0.00 | 0.00 | 43 | 1011.1 |
| 20260904235227 | 97 | 160 | 2.0 | 3.0 | 0.00 | 0.00 | 0.00 | 43 | 1010.8 |
| 20260904234726 | 97 | 112 | 1.0 | 2.0 | 0.00 | 0.00 | 0.00 | 43 | 1011.0 |
| 20260904234222 | 97 | 138 | 3.0 | 5.0 | 0.00 | 0.00 | 0.00 | 43 | 1010.7 |
| 20260904233718 | 98 | 149 | 2.0 | 2.0 | 0.00 | 0.00 | 0.00 | 42 | 1010.5 |
| 20260904233214 | 98 | 112 | 4.0 | 5.0 | 0.00 | 0.00 | 0.00 | 42 | 1010.8 |
| 20260904232710 | 98 | 160 | 4.0 | 8.0 | 0.00 | 0.00 | 0.00 | 41 | 1010.5 |
| 20260904232206 | 98 | 126 | 3.0 | 5.0 | 0.00 | 0.00 | 0.00 | 41 | 1010.5 |
| 20260904231701 | 98 | 143 | 0.0 | 1.0 | 0.00 | 0.00 | 0.00 | 41 | 1010.6 |
| 20260904231157 | 99 | 209 | 5.0 | 8.0 | 0.00 | 0.00 | 0.00 | 40 | 1010.6 |
| 20260904230656 | 99 | 139 | 2.0 | 2.0 | 0.00 | 0.00 | 0.00 | 40 | 1010.5 |
| 20260904230151 | 99 | 146 | 1.0 | 2.0 | 0.00 | 0.00 | 0.00 | 40 | 1010.5 |
| 20260904225649 | 99 | 153 | 2.0 | 3.0 | 0.00 | 0.00 | 0.00 | 41 | 1010.6 |
| 20260904225144 | 99 | 160 | 4.0 | 7.0 | 0.00 | 0.00 | 0.00 | 40 | 1010.7 |
| 20260904224639 | 99 | 148 | 3.0 | 5.0 | 0.00 | 0.00 | 0.00 | 41 | 1010.6 |
| 20260904224133 | 99 | 132 | 7.0 | 11.0 | 0.00 | 0.00 | 0.00 | 41 | 1010.7 |
| 20260904223633 | 100 | 167 | 4.0 | 6.0 | 0.00 | 0.00 | 0.00 | 40 | 1010.9 |
| 20260904223128 | 99 | 165 | 6.0 | 10.0 | 0.00 | 0.00 | 0.00 | 40 | 1010.6 |
| 20260904222624 | 100 | 152 | 5.0 | 9.0 | 0.00 | 0.00 | 0.00 | 40 | 1010.9 |
| 20260904222120 | 100 | 174 | 4.0 | 6.0 | 0.00 | 0.00 | 0.00 | 40 | 1010.5 |
| 20260904221619 | 100 | 157 | 5.0 | 11.0 | 0.00 | 0.00 | 0.00 | 40 | 1010.7 |
| 20260904221119 | 101 | 190 | 6.0 | 9.0 | 0.00 | 0.00 | 0.00 | 39 | 1010.6 |
| 20260904220614 | 100 | 153 | 2.0 | 2.0 | 0.00 | 0.00 | 0.00 | 39 | 1010.4 |
| 20260904220109 | 100 | 153 | 2.0 | 5.0 | 0.00 | 0.00 | 0.00 | 40 | 1010.6 |
| 20260904215603 | 100 | 157 | 1.0 | 1.0 | 0.00 | 0.00 | 0.00 | 39 | 1010.7 |
| 20260904215059 | 101 | 150 | 2.0 | 5.0 | 0.00 | 0.00 | 0.00 | 37 | 1010.7 |
| 20260904214555 | 101 | 210 | 4.0 | 8.0 | 0.00 | 0.00 | 0.00 | 39 | 1010.8 |
| 20260904214050 | 102 | 158 | 2.0 | 5.0 | 0.00 | 0.00 | 0.00 | 38 | 1010.9 |
| 20260904213548 | 102 | 160 | 2.0 | 3.0 | 0.00 | 0.00 | 0.00 | 37 | 1011.0 |
| 20260904213045 | 101 | 200 | 2.0 | 2.0 | 0.00 | 0.00 | 0.00 | 38 | 1011.1 |
| 20260904212544 | 102 | 150 | 6.0 | 8.0 | 0.00 | 0.00 | 0.00 | 39 | 1011.0 |
| 20260904212039 | 101 | 161 | 3.0 | 3.0 | 0.00 | 0.00 | 0.00 | 38 | 1011.0 |
| 20260904211534 | 102 | 144 | 2.0 | 2.0 | 0.00 | 0.00 | 0.00 | 38 | 1011.1 |
| 20260904211030 | 101 | 117 | 3.0 | 5.0 | 0.00 | 0.00 | 0.00 | 38 | 1011.3 |
| 20260904210528 | 102 | 230 | 8.0 | 9.0 | 0.00 | 0.00 | 0.00 | 38 | 1011.1 |
| 20260904210019 | 101 | 134 | 4.0 | 7.0 | 0.00 | 0.00 | 0.00 | 38 | 1011.4 |
| 20260904205514 | 100 | 150 | 4.0 | 5.0 | 0.00 | 0.00 | 0.00 | 39 | 1011.4 |
| 20260904205011 | 99 | 197 | 3.0 | 5.0 | 0.00 | 0.00 | 0.00 | 41 | 1011.3 |
| 20260904204507 | 101 | 189 | 3.0 | 3.0 | 0.00 | 0.00 | 0.00 | 40 | 1011.6 |
| 20260904204003 | 100 | 145 | 2.0 | 2.0 | 0.00 | 0.00 | 0.00 | 40 | 1011.4 |
| 20260904203458 | 101 | 175 | 3.0 | 5.0 | 0.00 | 0.00 | 0.00 | 40 | 1011.5 |
| 20260904202954 | 100 | 160 | 2.0 | 3.0 | 0.00 | 0.00 | 0.00 | 41 | 1011.6 |
| 20260904202450 | 100 | 168 | 3.0 | 3.0 | 0.00 | 0.00 | 0.00 | 41 | 1011.8 |
| 20260904201946 | 100 | 149 | 3.0 | 5.0 | 0.00 | 0.00 | 0.00 | 41 | 1011.9 |
| 20260904201441 | 100 | 157 | 5.0 | 9.0 | 0.00 | 0.00 | 0.00 | 41 | 1012.1 |
| 20260904200937 | 100 | 157 | 3.0 | 6.0 | 0.00 | 0.00 | 0.00 | 41 | 1011.7 |
| 20260904200435 | 99 | 174 | 4.0 | 6.0 | 0.00 | 0.00 | 0.00 | 42 | 1012.0 |
| 20260904195930 | 99 | 93 | 5.0 | 7.0 | 0.00 | 0.00 | 0.00 | 42 | 1012.2 |
| 20260904195427 | 101 | 189 | 4.0 | 6.0 | 0.00 | 0.00 | 0.00 | 42 | 1011.9 |
| 20260904194922 | 100 | 156 | 4.0 | 6.0 | 0.00 | 0.00 | 0.00 | 42 | 1011.9 |
| 20260904194421 | 100 | 195 | 5.0 | 7.0 | 0.00 | 0.00 | 0.00 | 44 | 1012.3 |
| 20260904193917 | 100 | 194 | 2.0 | 2.0 | 0.00 | 0.00 | 0.00 | 43 | 1012.2 |
| 20260904193412 | 100 | 174 | 5.0 | 11.0 | 0.00 | 0.00 | 0.00 | 43 | 1012.3 |
| 20260904192908 | 100 | 152 | 3.0 | 5.0 | 0.00 | 0.00 | 0.00 | 43 | 1012.2 |
| 20260904192403 | 98 | 192 | 9.0 | 13.0 | 0.00 | 0.00 | 0.00 | 45 | 1012.3 |
| 20260904191859 | 98 | 105 | 1.0 | 1.0 | 0.00 | 0.00 | 0.00 | 46 | 1012.2 |
| 20260904191356 | 98 | 183 | 3.0 | 3.0 | 0.00 | 0.00 | 0.00 | 47 | 1012.2 |
| 20260904190852 | 98 | 203 | 8.0 | 9.0 | 0.00 | 0.00 | 0.00 | 48 | 1012.2 |
| 20260904190347 | 98 | 172 | 5.0 | 7.0 | 0.00 | 0.00 | 0.00 | 47 | 1012.3 |
| 20260904185843 | 98 | 187 | 5.0 | 6.0 | 0.00 | 0.00 | 0.00 | 48 | 1012.6 |
| 20260904185339 | 98 | 194 | 3.0 | 3.0 | 0.00 | 0.00 | 0.00 | 48 | 1012.6 |
| 20260904184838 | 98 | 199 | 3.0 | 3.0 | 0.00 | 0.00 | 0.00 | 48 | 1012.6 |
| 20260904184333 | 98 | 153 | 2.0 | 5.0 | 0.00 | 0.00 | 0.00 | 50 | 1012.8 |
| 20260904183828 | 98 | 136 | 1.0 | 1.0 | 0.00 | 0.00 | 0.00 | 50 | 1012.9 |
| 20260904183323 | 98 | 152 | 3.0 | 3.0 | 0.00 | 0.00 | 0.00 | 49 | 1012.8 |
| 20260904182819 | 97 | 134 | 3.0 | 5.0 | 0.00 | 0.00 | 0.00 | 50 | 1012.8 |
| 20260904182314 | 96 | 172 | 3.0 | 3.0 | 0.00 | 0.00 | 0.00 | 50 | 1012.8 |
| 20260904181811 | 96 | 186 | 2.0 | 2.0 | 0.00 | 0.00 | 0.00 | 52 | 1012.9 |
| 20260904181309 | 96 | 172 | 2.0 | 3.0 | 0.00 | 0.00 | 0.00 | 51 | 1012.9 |
| 20260904180804 | 97 | 142 | 3.0 | 6.0 | 0.00 | 0.00 | 0.00 | 51 | 1012.9 |
| 20260904180300 | 96 | 130 | 1.0 | 1.0 | 0.00 | 0.00 | 0.00 | 52 | 1012.9 |
| 20260904175758 | 96 | 198 | 4.0 | 6.0 | 0.00 | 0.00 | 0.00 | 53 | 1012.9 |
| 20260904175257 | 96 | 152 | 1.0 | 2.0 | 0.00 | 0.00 | 0.00 | 52 | 1013.0 |
| 20260904174752 | 96 | 169 | 2.0 | 3.0 | 0.00 | 0.00 | 0.00 | 53 | 1013.6 |
| 20260904174248 | 96 | 199 | 3.0 | 6.0 | 0.00 | 0.00 | 0.00 | 54 | 1013.3 |
| 20260904173744 | 94 | 154 | 4.0 | 9.0 | 0.00 | 0.00 | 0.00 | 54 | 1013.4 |
| 20260904173243 | 96 | 185 | 3.0 | 3.0 | 0.00 | 0.00 | 0.00 | 54 | 1013.6 |
| 20260904172740 | 93 | 195 | 5.0 | 6.0 | 0.00 | 0.00 | 0.00 | 56 | 1013.7 |
| 20260904172239 | 93 | 215 | 8.0 | 9.0 | 0.00 | 0.00 | 0.00 | 55 | 1013.6 |
| 20260904171734 | 93 | 201 | 8.0 | 9.0 | 0.00 | 0.00 | 0.00 | 55 | 1013.6 |
| 20260904171229 | 95 | 141 | 1.0 | 2.0 | 0.00 | 0.00 | 0.00 | 54 | 1013.7 |
| 20260904170726 | 95 | 171 | 3.0 | 3.0 | 0.00 | 0.00 | 0.00 | 54 | 1013.6 |
| 20260904170221 | 94 | 181 | 2.0 | 2.0 | 0.00 | 0.00 | 0.00 | 55 | 1013.7 |
| 20260904165720 | 95 | 165 | 2.0 | 2.0 | 0.00 | 0.00 | 0.00 | 55 | 1013.9 |
| 20260904165216 | 94 | 165 | 3.0 | 6.0 | 0.00 | 0.00 | 0.00 | 55 | 1013.8 |
| 20260904164715 | 94 | 177 | 2.0 | 3.0 | 0.00 | 0.00 | 0.00 | 56 | 1014.0 |
| 20260904164209 | 92 | 226 | 10.0 | 11.0 | 0.00 | 0.00 | 0.00 | 58 | 1013.9 |
| 20260904163706 | 93 | 197 | 5.0 | 5.0 | 0.00 | 0.00 | 0.00 | 56 | 1013.8 |
| 20260904163201 | 93 | 182 | 2.0 | 2.0 | 0.00 | 0.00 | 0.00 | 55 | 1014.0 |
| 20260904162700 | 93 | 207 | 9.0 | 13.0 | 0.00 | 0.00 | 0.00 | 59 | 1013.8 |
| 20260904162155 | 92 | 135 | 2.0 | 3.0 | 0.00 | 0.00 | 0.00 | 58 | 1014.1 |
| 20260904161651 | 91 | 173 | 2.0 | 2.0 | 0.00 | 0.00 | 0.00 | 58 | 1013.8 |
| 20260904161146 | 92 | 142 | 2.0 | 2.0 | 0.00 | 0.00 | 0.00 | 58 | 1013.7 |
| 20260904160642 | 92 | 129 | 2.0 | 3.0 | 0.00 | 0.00 | 0.00 | 58 | 1013.9 |
| 20260904160137 | 92 | 195 | 3.0 | 5.0 | 0.00 | 0.00 | 0.00 | 57 | 1014.0 |
| 20260904155632 | 91 | 197 | 4.0 | 6.0 | 0.00 | 0.00 | 0.00 | 59 | 1013.6 |
| 20260904155131 | 91 | 204 | 4.0 | 5.0 | 0.00 | 0.00 | 0.00 | 59 | 1014.0 |
| 20260904154630 | 89 | 150 | 2.0 | 2.0 | 0.00 | 0.00 | 0.00 | 62 | 1013.7 |
| 20260904154125 | 90 | 162 | 3.0 | 6.0 | 0.00 | 0.00 | 0.00 | 61 | 1013.7 |
| 20260904153620 | 89 | 155 | 3.0 | 5.0 | 0.00 | 0.00 | 0.00 | 61 | 1013.7 |
| 20260904153116 | 88 | 135 | 2.0 | 2.0 | 0.00 | 0.00 | 0.00 | 64 | 1013.9 |
| 20260904152612 | 89 | 153 | 2.0 | 2.0 | 0.00 | 0.00 | 0.00 | 62 | 1013.7 |
| 20260904152107 | 90 | 193 | 4.0 | 9.0 | 0.00 | 0.00 | 0.00 | 61 | 1013.7 |
| 20260904151602 | 90 | 175 | 2.0 | 2.0 | 0.00 | 0.00 | 0.00 | 61 | 1013.7 |
| 20260904151101 | 88 | 150 | 2.0 | 2.0 | 0.00 | 0.00 | 0.00 | 63 | 1013.8 |
| 20260904150556 | 88 | 133 | 2.0 | 3.0 | 0.00 | 0.00 | 0.00 | 63 | 1013.8 |
| 20260904150055 | 88 | 153 | 1.0 | 2.0 | 0.00 | 0.00 | 0.00 | 63 | 1014.1 |
| 20260904145555 | 87 | 189 | 2.0 | 2.0 | 0.00 | 0.00 | 0.00 | 64 | 1013.9 |
| 20260904145050 | 86 | 156 | 3.0 | 5.0 | 0.00 | 0.00 | 0.00 | 65 | 1013.9 |
| 20260904144546 | 87 | 148 | 4.0 | 6.0 | 0.00 | 0.00 | 0.00 | 66 | 1013.9 |
| 20260904144042 | 87 | 164 | 4.0 | 7.0 | 0.00 | 0.00 | 0.00 | 66 | 1014.0 |
| 20260904143537 | 86 | 149 | 1.0 | 2.0 | 0.00 | 0.00 | 0.00 | 67 | 1013.8 |
| 20260904143034 | 86 | 141 | 2.0 | 2.0 | 0.00 | 0.00 | 0.00 | 67 | 1013.9 |
| 20260904142530 | 85 | 148 | 1.0 | 2.0 | 0.00 | 0.00 | 0.00 | 69 | 1013.9 |
| 20260904142025 | 85 | 150 | 2.0 | 3.0 | 0.00 | 0.00 | 0.00 | 69 | 1013.8 |
| 20260904141520 | 85 | 173 | 4.0 | 5.0 | 0.00 | 0.00 | 0.00 | 69 | 1013.6 |
| 20260904141016 | 85 | 183 | 3.0 | 3.0 | 0.00 | 0.00 | 0.00 | 70 | 1013.9 |
| 20260904140511 | 85 | 139 | 3.0 | 7.0 | 0.00 | 0.00 | 0.00 | 70 | 1013.9 |
| 20260904140010 | 84 | 156 | 3.0 | 3.0 | 0.00 | 0.00 | 0.00 | 71 | 1013.8 |
| 20260904135504 | 84 | 203 | 5.0 | 6.0 | 0.00 | 0.00 | 0.00 | 71 | 1013.7 |
| 20260904135001 | 84 | 155 | 9.0 | 16.0 | 0.00 | 0.00 | 0.00 | 71 | 1013.7 |
| 20260904134501 | 84 | 171 | 4.0 | 6.0 | 0.00 | 0.00 | 0.00 | 72 | 1013.8 |
| 20260904133954 | 83 | 168 | 2.0 | 3.0 | 0.00 | 0.00 | 0.00 | 73 | 1013.7 |
| 20260904133449 | 83 | 185 | 1.0 | 2.0 | 0.00 | 0.00 | 0.00 | 73 | 1013.6 |
| 20260904132945 | 83 | 210 | 3.0 | 3.0 | 0.00 | 0.00 | 0.00 | 73 | 1014.0 |
| 20260904132440 | 83 | 165 | 3.0 | 5.0 | 0.00 | 0.00 | 0.00 | 74 | 1013.6 |
| 20260904131940 | 82 | 153 | 2.0 | 2.0 | 0.00 | 0.00 | 0.00 | 75 | 1013.5 |
| 20260904131435 | 82 | 153 | 1.0 | 1.0 | 0.00 | 0.00 | 0.00 | 76 | 1013.4 |
| 20260904130931 | 81 | 166 | 5.0 | 7.0 | 0.00 | 0.00 | 0.00 | 78 | 1013.6 |
| 20260904130429 | 80 | 144 | 1.0 | 2.0 | 0.00 | 0.00 | 0.00 | 79 | 1013.2 |
| 20260904125924 | 80 | 155 | 3.0 | 8.0 | 0.00 | 0.00 | 0.00 | 80 | 1013.3 |
| 20260904125421 | 79 | 189 | 3.0 | 5.0 | 0.00 | 0.00 | 0.00 | 82 | 1013.0 |
| 20260904124920 | 79 | 137 | 1.0 | 1.0 | 0.00 | 0.00 | 0.00 | 83 | 1013.0 |
| 20260904124417 | 78 | 147 | 3.0 | 7.0 | 0.00 | 0.00 | 0.00 | 83 | 1013.2 |
| 20260904123912 | 78 | 132 | 1.0 | 1.0 | 0.00 | 0.00 | 0.00 | 84 | 1013.2 |
| 20260904123412 | 78 | 129 | 0.0 | 0.0 | 0.00 | 0.00 | 0.00 | 84 | 1013.4 |
| 20260904122908 | 78 | 148 | 3.0 | 6.0 | 0.00 | 0.00 | 0.00 | 85 | 1012.9 |
| 20260904122407 | 78 | 139 | 0.0 | 1.0 | 0.00 | 0.00 | 0.00 | 85 | 1012.9 |
| 20260904121902 | 77 | 137 | 1.0 | 3.0 | 0.00 | 0.00 | 0.00 | 86 | 1013.0 |
| 20260904121359 | 77 | 135 | 1.0 | 1.0 | 0.00 | 0.00 | 0.00 | 86 | 1013.0 |
| 20260904120854 | 77 | 133 | 0.0 | 1.0 | 0.00 | 0.00 | 0.00 | 86 | 1012.8 |
| 20260904120351 | 77 | 139 | 1.0 | 1.0 | 0.00 | 0.00 | 0.00 | 87 | 1012.9 |
| 20260904115845 | 77 | 145 | 1.0 | 1.0 | 0.00 | 0.00 | 0.00 | 87 | 1012.9 |
| 20260904115341 | 77 | 149 | 1.0 | 2.0 | 0.00 | 0.00 | 0.00 | 87 | 1012.9 |
| 20260904114841 | 77 | 138 | 1.0 | 2.0 | 0.00 | 0.00 | 0.00 | 87 | 1012.7 |
| 20260904114335 | 77 | 131 | 1.0 | 1.0 | 0.00 | 0.00 | 0.00 | 87 | 1013.0 |
| 20260904113831 | 77 | 127 | 0.0 | 0.0 | 0.00 | 0.00 | 0.00 | 87 | 1012.8 |
| 20260904113330 | 77 | 129 | 0.0 | 1.0 | 0.00 | 0.00 | 0.00 | 87 | 1012.7 |
| 20260904112825 | 77 | 133 | 1.0 | 1.0 | 0.00 | 0.00 | 0.00 | 87 | 1012.5 |
| 20260904112321 | 77 | 143 | 0.0 | 1.0 | 0.00 | 0.00 | 0.00 | 87 | 1012.5 |
| 20260904111816 | 77 | 131 | 0.0 | 0.0 | 0.00 | 0.00 | 0.00 | 87 | 1012.8 |
| 20260904111312 | 77 | 124 | 0.0 | 1.0 | 0.00 | 0.00 | 0.00 | 87 | 1012.7 |
| 20260904110808 | 77 | 142 | 1.0 | 1.0 | 0.00 | 0.00 | 0.00 | 87 | 1012.5 |
| 20260904110306 | 77 | 136 | 0.0 | 0.0 | 0.00 | 0.00 | 0.00 | 87 | 1012.6 |
| 20260904105801 | 77 | 165 | 1.0 | 3.0 | 0.00 | 0.00 | 0.00 | 87 | 1012.5 |
| 20260904105256 | 77 | 156 | 2.0 | 3.0 | 0.00 | 0.00 | 0.00 | 87 | 1012.4 |
| 20260904104751 | 77 | 149 | 3.0 | 5.0 | 0.00 | 0.00 | 0.00 | 87 | 1012.4 |
| 20260904104247 | 77 | 181 | 3.0 | 3.0 | 0.00 | 0.00 | 0.00 | 87 | 1012.4 |
| 20260904103744 | 77 | 164 | 3.0 | 3.0 | 0.00 | 0.00 | 0.00 | 87 | 1012.4 |
| 20260904103237 | 77 | 133 | 3.0 | 3.0 | 0.00 | 0.00 | 0.00 | 87 | 1012.4 |
| 20260904102733 | 77 | 164 | 3.0 | 3.0 | 0.00 | 0.00 | 0.00 | 87 | 1012.7 |
| 20260904102229 | 77 | 147 | 1.0 | 2.0 | 0.00 | 0.00 | 0.00 | 87 | 1012.5 |
| 20260904101725 | 77 | 147 | 3.0 | 3.0 | 0.00 | 0.00 | 0.00 | 86 | 1012.6 |
| 20260904101221 | 77 | 104 | 2.0 | 3.0 | 0.00 | 0.00 | 0.00 | 87 | 1012.6 |
| 20260904100716 | 77 | 158 | 3.0 | 3.0 | 0.00 | 0.00 | 0.00 | 87 | 1012.4 |
| 20260904100213 | 77 | 155 | 2.0 | 2.0 | 0.00 | 0.00 | 0.00 | 86 | 1012.3 |
| 20260904095711 | 77 | 151 | 2.0 | 5.0 | 0.00 | 0.00 | 0.00 | 86 | 1012.4 |
| 20260904095206 | 77 | 151 | 3.0 | 3.0 | 0.00 | 0.00 | 0.00 | 86 | 1012.2 |
| 20260904094702 | 77 | 98 | 4.0 | 6.0 | 0.00 | 0.00 | 0.00 | 86 | 1012.2 |
| 20260904094202 | 77 | 169 | 2.0 | 2.0 | 0.00 | 0.00 | 0.00 | 86 | 1012.2 |
| 20260904093659 | 78 | 146 | 3.0 | 5.0 | 0.00 | 0.00 | 0.00 | 86 | 1012.1 |
| 20260904093158 | 78 | 139 | 1.0 | 2.0 | 0.00 | 0.00 | 0.00 | 86 | 1012.1 |
| 20260904092655 | 78 | 135 | 4.0 | 5.0 | 0.00 | 0.00 | 0.00 | 86 | 1012.0 |
| 20260904092150 | 78 | 129 | 0.0 | 0.0 | 0.00 | 0.00 | 0.00 | 86 | 1011.9 |
| 20260904091646 | 78 | 174 | 3.0 | 5.0 | 0.00 | 0.00 | 0.00 | 85 | 1012.0 |
| 20260904091146 | 78 | 147 | 3.0 | 3.0 | 0.00 | 0.00 | 0.00 | 85 | 1012.0 |
| 20260904090642 | 78 | 138 | 3.0 | 3.0 | 0.00 | 0.00 | 0.00 | 85 | 1012.3 |
| 20260904090137 | 78 | 146 | 2.0 | 5.0 | 0.00 | 0.00 | 0.00 | 85 | 1011.9 |
| 20260904085632 | 78 | 141 | 1.0 | 1.0 | 0.00 | 0.00 | 0.00 | 85 | 1012.2 |
| 20260904085131 | 78 | 132 | 1.0 | 2.0 | 0.00 | 0.00 | 0.00 | 85 | 1012.4 |
| 20260904084627 | 78 | 140 | 2.0 | 2.0 | 0.00 | 0.00 | 0.00 | 85 | 1012.2 |
| 20260904084123 | 78 | 164 | 1.0 | 2.0 | 0.00 | 0.00 | 0.00 | 85 | 1012.0 |
| 20260904083619 | 78 | 166 | 3.0 | 3.0 | 0.00 | 0.00 | 0.00 | 85 | 1012.1 |
| 20260904083115 | 78 | 147 | 2.0 | 5.0 | 0.00 | 0.00 | 0.00 | 85 | 1012.0 |
| 20260904082610 | 78 | 147 | 2.0 | 5.0 | 0.00 | 0.00 | 0.00 | 85 | 1012.0 |
| 20260904082105 | 78 | 159 | 3.0 | 3.0 | 0.00 | 0.00 | 0.00 | 84 | 1012.3 |
| 20260904081601 | 78 | 183 | 3.0 | 3.0 | 0.00 | 0.00 | 0.00 | 85 | 1012.2 |